Washington, USA · Corporation

Jurisdiction: Washington, USA
Register: Washington Secretary of State

This dataset includes over 1.16 million corporations and business entities registered with the Washington Secretary of State. Each corporation registration contains business name, address, register agent, entity status, officers and incorporation date.

AUBURN · Search Result

Corporation Name Office Address Agent Start Date
SKH HOLDINGS, LLC 33112 135th Pl Se, Auburn, WA 98092-8514 HK HOLDINGS LLC 2020-01-10
PERFORMANCE MOBILE, LLC 16922 223rd Ave E, Orting, WA 98360-9122 DOUGLAS GILL 2020-01-10
PHO U PLUS BURGER INC. 12722 Se 312th St Apt E, Auburn, WA 98092-3407 ERIC Y. ALONSO GALLEGOS 2020-01-10
BLACK FROG CREATIONS LLC 37323 38th Ave S, Auburn, WA 98001-8717 JOSEPH FAIVRE 2020-01-09
Z KRAFTWAGEN LLC 12936 Se 306th Ct, Auburn, WA 98092-3311 ZACHARY GILBERT 2020-01-08
FLOR'S AUTO SALES LLC 3415 19th St Se, Auburn, WA 98092-6443 FLOR MOOSETRAIL-SANCHEZ 2020-01-08
QUALITY REAL ESTATE GROUP, LLC 30124 50th Ln S, Auburn, WA 98001-2940 QUALITY REAL ESTATE GROUP 2020-01-07
DISTINCT, LLC 2407 56th St Se, Auburn, WA 98092-6588 BREANN WALKER 2020-01-07
AMERICA'S DRIVING SCHOOL, LLC 30 B St Ne #101, Auburn, WA 98002 BRUCE RICHEY 2020-01-07
OCTOBOT LLC 6312 Stuart Pl Se, Auburn, WA 98092-7728 JADE VANDERBERG 2020-01-07
AMY HOLMES PHOTOGRAPHY LLC 2626 57th St Se, Auburn, WA 98092-6539 AMY HOLMES 2020-01-07
CONSIDERATE CONTRACTING AND DESIGN INC. 412 Hi Crest Dr, Auburn, WA 98001-3838 THOMAS LYMAN 2020-01-07
MARIA'S OFFICE & CLEANING SERVICES, INC 1317 8th St Ne Apt 1-5, Auburn, WA 98002-4554 MARIBEL GONZALES 2020-01-07
HALI DAYCARE LLC 12601 Se 295th St, Auburn, WA 98092-3238 HALIMO HASSAN 2020-01-06
K&R MOVING LLC 14126 Meridian E Apt A203, Puyallup, WA 98373-6075 SUE KATSEL 2020-01-06
NYAKI ADULT FAMILY HOME LLC 2635 Forest Ridge Dr Se, Auburn, WA 98002-7023 PATRICK TAMNKANG 2020-01-06
WHITE SMILES WITH SARAH LLC 11511 Se 302nd Ct, Auburn, WA 98092-2057 SARAH IGNACIO 2020-01-06
JOSTA MOVERS & CLEANING SERVICES LLC 1030 42nd Ct Ne, Auburn, WA 98002-0005 AYUB NJOROGE 2020-01-06
HBSN, HAIR BY STEPHANIE NICHOLE, LLC 4907 S 313th Pl, Auburn, WA 98001-3716 STEPHANIE BURNETT 2020-01-03
URBAN BUILT LLC 35006 57th Ave S, Auburn, WA 98001-9206 YURIY RADCHUK 2020-01-03
AGAPE HEALTHCARE PROFESSIONALS INSTITUTE LLC 240 Auburn Way S Ste 2a, Auburn, WA 98002-5452 ANNE CHEGE 2020-01-03
PARAGON SOLUTIONS NW LLC 30521 54th Ave S, Auburn, WA 98001-2726 CHET JOHNSON 2020-01-02
BA MOTORS LLC 34622 W Valley Hwy S, Auburn, WA 98001-4320 BA MOTORS LLC 2020-01-02
NEVERLAND THEATER, LLC 3744 N Villard St, Tacoma, WA 98407-3524 KELLY RATHBURN 2020-01-02
TAXES BY ANGELA LLC 4205 Auburn Way S Trlr 13, Auburn, WA 98092-7240 ANGELA CRAFT 2020-01-02
HUERTAS REMODELING LLC 6280 Terrace View Ln Se Apt B408, Auburn, WA 98092-5502 EMA GUZMAN 2020-01-02
GLORIETA 2.0, INC. 11 State Road 50, Glorieta, NM 87535 BLACK DIAMOND CAMPS 2020-01-01
HCP CONSTRUCTION LLC 708 10th St Ne Apt C, Auburn, WA 98002-4154 HUGO DE LA CRUZ ORTIZ BERUMEN 2020-01-01
TREND DESIGN SHOE FASHION, INC. 2980 N Litchfield Rd Ste 120, Goodyear, AZ 85395-7832 BRYAN VEENTJER 2020-01-01
SOLEI & CO INC 1418 Lake Tapps Pkwy Se, Auburn, WA 98092-8155 MARY TURLEY 2020-01-01
EON BRAIDS CARE LLC 31577 115th Ave Se, Auburn, WA 98092 CHINENYE DURUEKE 2020-01-01
JAZZ TOWING LLC 35036 41st Pl, Auburn, WA 98001 EDWARD SAID NASSAR 2020-01-01
RAYS TRANSPORT LLC 31061 117th Pl Se, Auburn, WA 98092-3375 YURIY SHCHAVLINSKIY 2020-01-01
BLUEPRINT 4 STAGING LLC 1436 U Ct Nw, Auburn, WA 98001-3511 EDITH KEECH 2020-01-01
GROUP88, LLC 9115 South Tacoma Way, Lakewood, WA 98499-4400 ANDREW JEONG 2019-12-31
BA TRANSPORT INC 1210 M St Se Apt 35, Auburn, WA 98002-6706 ANDRIY BORYSHKEVYCH 2019-12-31
NORTHWEST K9 LLC 11 3rd St Nw, Auburn, WA 98002-4033 NORTHWEST K9 2019-12-30
TIGERS EXPRESS LLC 4114 S 292nd Pl, Auburn, WA 98001-2500 ALEXANDR TISHCHENKO 2019-12-30
WATERFRONT2019 LLC 12619 Se 317th St, Auburn, WA 98092-3675 IHAR ZINKEVICH 2019-12-30
CRYSTALL CLEAN LLC 21 M St Se, Auburn, WA 98002-5725 CRYSTALL RODRIGUEZ 2019-12-26
AMERICAN RETAIL CONTRACTORS LLC 20634 N 28th St Ste 110, Phoenix, AZ 85050-4629 NORMA HAYDEN 2019-12-26
O'MALLEY PROPERTIES 5001, LLC 11304 133rd Ave E, Puyallup, WA 98374-5018 MICHAEL BOSWELL 2019-12-24
MCGUIRE TERRITORY LLC 5340 Sw 315th St, Federal Way, WA 98023-2034 ACTION TAX LLC 2019-12-24
HEAT BY ICE LLC 31600 126th Ave Se Spc E182, Auburn, WA 98092-3502 IAN EDWARDS 2019-12-24
PINK PINEAPPLE FUSION LLC 38032 Military Rd S, Auburn, WA 98001-8716 KRISALEE BALL 2019-12-24
DMTK CONSTRUCTION LLC 1221 A St Ne Apt D301, Auburn, WA 98002-4191 DMYTRO TKACHUK 2019-12-23
FRONTLINE CHAPLAINS INTERNATIONAL 2005 Birdcreek Dr Ste 212, Temple, TX 76502-1002 JULIE STORER 2019-12-20
HER HEALTHSTYLE, PLLC 34008 56th Ave S, Auburn, WA 98001-9757 AMY HUMPHREY 2019-12-17
DEWITT INVESTMENT COMPANY, LLC 35426 44th Ave S, Auburn, WA 98001-9031 STEPHANIE DEWITT 2019-12-17
ZOVA HOLDINGS CORPORATION 328 37th St Nw Ste F, Auburn, WA 98001-2402 KATE DE KRUYF 2019-12-17
SLPP INVESTMENTS LLC 21323 Se 351st St, Auburn, WA 98092-1537 STEVEN LINDER 2019-12-17
ZOVA LEASING COMPANY LLC 328 37th St Ne Unit F, Auburn, WA 98001-2402 KATE DE KRUYF 2019-12-17
NIIRVAN LLC 29697 129th Pl Se, Auburn, WA 98092-3236 RINCY SUNNY MATHEW 2019-12-16
ALWAYS ON GUARD SECURITY LLC 2104 A St Se Apt C, Auburn, WA 98002-6829 ALWAYS ON GUARD SECURITY LLC 2019-12-12
STEFAN LLC 37526 51st Ave S, Auburn, WA 98001-9423 STEFAN LLC 2019-12-12
COATNEY FENCING LLC 11212 238th St E, Graham, WA 98338-6711 ACTION TAX LLC 2019-12-12
WORLD AMPM COUNTERTOPS LLC 1111 4th St Ne Apt 106, Auburn, WA 98002-4593 EDWIN SALAS VAZQUEZ 2019-12-12
LIVESHOTZ PRODUCTIONS LLC 4426 S 352nd Ln, Auburn, WA 98001-9054 ANDRE’ LENOIR 2019-12-11
AFFORDABLE ADULT FAMILY CARE HOME LLC 3001 14th St Se, Auburn, WA 98092-6467 MOSESS KIMANI 2019-12-11
SKV GROUP, LLC 31518 120th Ct Se, Auburn, WA 98092-5102 SUNIL KHANAL 2019-12-11
YOK MANAGEMENT LLC 32318 49th Ave S, Auburn, WA 98001-3112 YOUNG-OK KANG 2019-12-10
CANOPY WEST, LLC 5141 Auburn Way N, Auburn, WA 98002-1397 MANDEEP KLAR 2019-12-09
KOTHE'S FAMILY LLC 1408 Lake Tapps Pkwy Se Ste 201, Auburn, WA 98092-8158 GABRIEL KOTHE 2019-12-06
PUGET SOUND FENCING LLLP 11660 Se 323rd Pl, Auburn, WA 98092-4848 MARK ANGEL 2019-12-06
TAWNY SMITH, LLC 6408 Stuart Pl Se, Auburn, WA 98092-7727 TAWNY SMITH 2019-12-05
OASIS AT MARINE VIEW ADULT FAMILY HOME LLC 29845 6th Ave S, Federal Way, WA 98003-3624 AJEY'S AFH LLC 2019-12-05
THE FISHBOWL ARTS AND ENTERTAINMENT LLC 5170 S 303rd Pl, Auburn, WA 98001 LEA-ANTHONETTE REALIZA 2019-12-04
MINMIN DESIGN LLC 16532 Ne 98th Ct, Redmond, WA 98052 CHRIS LIU 2019-12-04
LUXESHOP LLC 30111 61st Ave S, Auburn, WA 98001-3017 GAEL YIMEN YIMGA 2019-12-04
JD1 TRANSPORT LLC 2211 W St Nw, Auburn, WA 98001-3418 JARROD DAVIS 2019-12-04
ALL NATION'S MEDICINE, LLC 329 2nd St Ne, Auburn, WA 98002-5039 RICKY LEE TAFF 2019-12-03
IMPULSO TAX AND ACCOUNTING LLC 4248 A St Se Trlr 331, Auburn, WA 98002-8660 IMPULSO TAX AND ACCOUNTING LLC 2019-12-03
SALAS MOVING AND DELIVERY SERVICES LLC 33211 192nd Ave Se, Auburn, WA 98092 OSCAR FLORES SALAS 2019-12-03
DESIGN NORTHWEST STONE LLC 32115 105th Pl Se Apt A303, Auburn, WA 98092-4772 ROBERTO BAUTISTA 2019-12-03
LAZARE BOUA REALESTATE INVESTMENT LLC 1617 22nd St Ne, Auburn, WA 98002-3404 KOUASSI LAZARE ASSIE 2019-12-03
RIVER ROCK ESTATES OWNERS ASSOCIATION 36809 204th Ave Se, Auburn, WA 98092-9010 JOHN MARYANSKI 2019-12-03
INDIAN MOTORCYCLES AUBURN LLC 1611 West Valley Hwy S, Auburn, WA 98001 BRIAN KANE 2019-12-02
COMPREHENSIVE NURSE CONSULTING LLC 31830 118th Pl Se, Auburn, WA 98092-3616 LYNNETTE EMANUEL 2019-12-02
AUBURN MOTORCYCLES LLC 1880 S 7th Ave, Phoenix, AZ 85007-4104 BRIAN KANE 2019-12-02
ARTISAN DESIGN INTERIORS, LLC 1501 20th St Nw, Auburn, WA 98001-3422 JASON MCDOWELL 2019-11-27
LIKE THE WEATHER, LLC 5017 S 310th Pl, Auburn, WA 98001-2659 RAINEE TAYLOR 2019-11-27
EMPOWER MINISTRIES 209 M St Ne, Auburn, WA 98002-4428 MATTHEW RAMIREZ 2019-11-27
TOYONDA206 LLC 3916 S 374th St, Auburn, WA 98001-8920 STANISLAV YEVENKO 2019-11-26
TR BATH&KITCHEN REMODELING LLC 1425 8th St Ne Apt I8, Auburn, WA 98002-4541 TIMOFEI RUMEUS 2019-11-26
MVN TRANSPORT LLC 602 29th St Se Trlr 54, Auburn, WA 98002-7780 VLADIMIR SURINOV 2019-11-26
SENTRY LABS, LLC 15433 Se Lake Moneysmith Rd, Auburn, WA 98092-5286 IVAN LESKO 2019-11-25
KINGDOM COMMUNITY INTERNATIONAL MINISTRY 1728 22nd St Ne, Auburn, WA 98002-3435 EDDAH MWANGI 2019-11-25
DIGITAL MEDIA PRODUCTIONS LLC 15706 Se Lake Holm Rd, Auburn, WA 98092-5928 RICHARD FRICKS 2019-11-25
WESLEY DUNCAN LLC 34006 53rd Ave S, Auburn, WA 98001-9724 WESLEY DUNCAN 2019-11-22
THUY NGO PHOTOGRAPHY LLC 12630 Se 307th St, Auburn, WA 98092-3198 THUY NGO 2019-11-21
ANKIR LIMITED LIABILITY COMPANY LLC 2802 K St Se, Auburn, WA 98002 OLEH KARKACHOV 2019-11-19
WAITLIST HERO, LLC 32225 159th Ave Se, Auburn, WA 98092 JOLENE MORGAN 2019-11-19
QUALITY COLD EXPRESS ENTERPRISES LLC 919 28th St Ne, Apt D, Auburn, WA 98002 QUALITY COLD EXPRESS ENTERPRISES LLC 2019-11-19
DPCHEM CONSULTING INC 32112 162nd Ave Se, Auburn, WA 98092-5955 DANIEL PARKER 2019-11-18
DIRECT TIRES CORPORATION 36427 50th Ave S, Auburn, WA 98001-9107 IGOR ONISHCHENKO 2019-11-18
BREONABELLA LASH STUDIO LLC 29405 34th Ave S, Auburn, WA 98001-2501 BREONA MILAM 2019-11-18
IM PROGRESS LLC 12722 Se 312th St Apt G205, Auburn, WA 98092-3149 IVAN CHAPKYN 2019-11-18
HEMA. LLC 6415 Elizabeth Ave Se, Auburn, WA 98092-3893 GUANGFEI HE 2019-11-15
LEGACY DEVELOPMENTS LLC 37418 49th Ave S, Auburn, WA 98001-9432 ERIK MAKSIMCHUK 2019-11-15
EQUIPPED CONFERENCE 1833 Auburn Way N Ste T, Auburn, WA 98002-3361 ACTION TAX LLC 2019-11-14